Back to catalog

ERS 2 DEB

AliveSSO
NORAD 35391·DEBRIS·🇪🇺 EU

Launched Apr 21, 1995 from Guiana Space Centre

Loading…

Next Passes (next 24 hours)

TLE

FreshSource: Space-Track

Epoch: Sep 14, 2026, 10:38 UTC

1 35391U 95021E   26257.44332112  .00001413  00000-0  38133-3 0  9990
2 35391  98.6236 242.6735 0004428 191.7887 321.4072 14.49449254 10517

Track ERS 2 DEB in real time with AllMySat

Download on the App Store